カタログに戻る

FENGYUN 1C DEB

運用中SSO
NORAD 30802·DEBRIS·🇨🇳 China

打ち上げ May 10, 1999 から Taiyuan Satellite Launch Center

Loading…

次のパス (今後24時間)

TLE

最新Source: Space-Track

元期: Sep 14, 2026, 04:48 UTC

1 30802U 99025AUL 26257.20013727  .00002530  00000-0  90926-3 0  9991
2 30802  98.8340 354.7039 0016672 308.2518  81.3300 14.34655168 11489

AllMySatでFENGYUN 1C DEBをリアルタイム追跡

Download on the App Store